Showing default

PICO-02C023, 60564

Orbit data source: Space-Track

PICO-02C023, 60564 is a payload satellite owned by Apogeo Space (IT) in SSO that was launched on Fri, 16 Aug 2024 UTC via an FALCON 9 launch vehicle from the Air Force Western Test Range (AFWTR). Payload-class satellites include a variety of spacecraft equipped with specific instruments for various scientific and technological missions. These include communications satellites like Starlink; space stations such as the ISS; scientific satellites like the Hubble; Earth observation satellites from companies like Planet Labs, Umbra, and HawkEye 360; GPS; miniature CubeSats for education and research; and military/defense satellites.

Loading next visibility...
Identifier
60564, 2024-149DA
Orbit
SSO
Country
Flag of ITIT
Related business
Manufacturer
Apogeo Space
Mission
Operational Commercial Communications
Bus & Motor
CUBESAT 0.3U, Unknown motor
Mass
0.5 kg wet, 0.5 kg dry
Launch date (UTC)
2024-08-16 (1 year ago)
Launch vehicle
FALCON 9
Launch site
Air Force Western Test Range (AFWTR)
Object type
Payload
Rocket body
Debris
Shape & HBR
Box, 0.1 m
Radar Cross Section
0.008 m², Medium (>0.1 m² and < 1m²)

Expand to show TLE details & history
Last TLE update: 1 day ago

TLE from 1 day ago
0 PICO-02C023
1 60564U 24149DA  25338.47545514  .00268232  00000-0  58899-2 0  9991
2 60564  97.6906  65.2516 0001789 281.2968  78.8077 15.42988268 71745
Epoch: 2025-12-04T11:24Z
TLE epoch observation values (Epoch: 2025-12-04T11:24:39.324Z)
Latitude
-0.00007°
Longitude
-179.4436°
Altitude
440.172 km
Speed
7.648 km/s
True Right ascension
04h 21m 00s
True Declination
0° 00' 00"
Sunlit
Object was in full shadow at epoch
Visualization orbit readout
Latitude
Unknown
Longitude
Unknown
Altitude
Unknown
Speed
Unknown
Apparent Right ascension
Unknown
Apparent Declination
Unknown
Sunlit
N/A
Visualization observer readout
Local Sidereal Time
13:26:19
Azimuth
Unknown
Elevation
Unknown
Doppler factor
Unknown
Orbital elements
Apogee altitude
435.462 km
Perigee altitude
433.025 km
Semi-major axis
6,812.38 km
Eccentricity
0.00018
Inclination
97.6906°
RAAN
65.2516°
Arg. of periapsis
281.2968°
True anomaly
78.82781°
Mean anomaly
78.8077°
Eccentric anomaly
78.81776°
Mean motion
3.86007 °/min
Orbital period
93.26 mins
BSTAR
0.0058899
Loading maneuver chart data...
Computing Atmospheric mass density...
Loading historical data...
Loading historical data...
Loading historical data...
Loading historical data...
Loading historical data...
Loading historical data...
Loading historical data...

Documentation

Showing up to 5 results
|